N828C 3R9-KDWH

Flight info

Callsign N828C
Flight time N/A
Altitude 7000
Route BEESO BASTO MNURE PRARI
Aircraft PA24/L-BDFGLORY/S

Departure

Time N/A
Airport 3R9

Arrival

Time 2026-04-29 14:56
Airport David Wayne Hooks Memorial Airport (KDWH)
Time Latitude Longitude Altitude Speed Heading
2026-04-29 13:35 30.35884 -97.99429 908 ft 0 kts 83°
2026-04-29 13:36 30.35884 -97.99436 909 ft 1 kts 110°
2026-04-29 13:36 30.35888 -97.99441 909 ft 0 kts 158°
2026-04-29 13:36 30.35885 -97.99440 909 ft 1 kts 166°
2026-04-29 13:36 30.35884 -97.99439 909 ft 0 kts 168°
2026-04-29 13:48 30.35878 -97.99438 909 ft 2 kts 169°
2026-04-29 13:48 30.35852 -97.99432 910 ft 3 kts 182°
2026-04-29 13:49 30.35844 -97.99443 910 ft 0 kts 256°
2026-04-29 13:51 30.35841 -97.99456 910 ft 6 kts 249°
2026-04-29 13:51 30.35817 -97.99467 910 ft 7 kts 154°
2026-04-29 13:51 30.35741 -97.99444 911 ft 13 kts 172°
2026-04-29 13:52 30.35650 -97.99425 910 ft 13 kts 168°
2026-04-29 13:52 30.35557 -97.99404 911 ft 14 kts 169°
2026-04-29 13:52 30.35461 -97.99381 913 ft 15 kts 168°
2026-04-29 13:52 30.35376 -97.99362 912 ft 13 kts 169°
2026-04-29 13:53 30.35282 -97.99341 912 ft 9 kts 172°
2026-04-29 13:53 30.35230 -97.99339 914 ft 6 kts 117°
2026-04-29 13:53 30.35247 -97.99333 913 ft 0 kts 348°
2026-04-29 13:54 30.35480 -97.99387 913 ft 70 kts 346°
2026-04-29 13:54 30.36007 -97.99500 1104 ft 78 kts 345°
2026-04-29 13:54 30.36545 -97.99631 1340 ft 79 kts 345°
2026-04-29 13:55 30.37080 -97.99746 1585 ft 79 kts 346°
2026-04-29 13:55 30.37620 -97.99864 1829 ft 80 kts 342°
2026-04-29 13:55 30.38170 -97.99997 2059 ft 81 kts 343°
2026-04-29 13:55 30.38737 -98.00120 2266 ft 86 kts 344°
2026-04-29 13:56 30.39348 -98.00113 2455 ft 93 kts 17°
2026-04-29 13:56 30.39804 -97.99604 2681 ft 94 kts 65°
2026-04-29 13:56 30.39869 -97.98983 2878 ft 94 kts 91°
2026-04-29 13:56 30.39846 -97.98576 3030 ft 92 kts 93°
2026-04-29 13:57 30.39787 -97.97829 3263 ft 94 kts 95°
2026-04-29 13:57 30.39716 -97.97085 3540 ft 92 kts 95°
2026-04-29 13:57 30.39732 -97.96340 3772 ft 95 kts 75°
2026-04-29 13:57 30.39985 -97.95645 4044 ft 93 kts 54°
2026-04-29 13:58 30.40411 -97.95076 4272 ft 95 kts 43°
2026-04-29 13:58 30.40708 -97.94399 4498 ft 97 kts 78°
2026-04-29 13:58 30.40696 -97.93624 4759 ft 94 kts 92°
2026-04-29 13:58 30.40629 -97.92875 4977 ft 97 kts 100°
2026-04-29 13:59 30.40433 -97.92139 5227 ft 95 kts 114°
2026-04-29 13:59 30.40091 -97.91477 5440 ft 96 kts 129°
2026-04-29 13:59 30.39614 -97.90950 5680 ft 95 kts 145°
2026-04-29 13:59 30.39031 -97.90595 5896 ft 94 kts 162°
2026-04-29 14:00 30.38393 -97.90449 6119 ft 94 kts 179°
2026-04-29 14:00 30.37748 -97.90489 6321 ft 94 kts 178°
2026-04-29 14:00 30.37137 -97.90196 6488 ft 98 kts 137°
2026-04-29 14:00 30.36734 -97.89571 6730 ft 95 kts 124°
2026-04-29 14:01 30.36368 -97.88917 6920 ft 97 kts 123°
2026-04-29 14:01 30.36026 -97.88218 7041 ft 107 kts 119°
2026-04-29 14:01 30.35647 -97.87422 7071 ft 121 kts 120°
2026-04-29 14:01 30.35228 -97.86502 7027 ft 136 kts 113°
2026-04-29 14:02 30.34920 -97.85429 6992 ft 145 kts 105°
2026-04-29 14:02 30.34681 -97.84302 7019 ft 147 kts 104°
2026-04-29 14:02 30.34444 -97.83129 7016 ft 152 kts 103°
2026-04-29 14:02 30.34203 -97.81920 6989 ft 156 kts 103°
2026-04-29 14:03 30.33959 -97.80698 6992 ft 156 kts 103°
2026-04-29 14:03 30.33717 -97.79476 7002 ft 155 kts 103°
2026-04-29 14:03 30.33478 -97.78260 6997 ft 154 kts 103°
2026-04-29 14:03 30.33241 -97.77049 6996 ft 154 kts 102°
2026-04-29 14:04 30.33057 -97.75824 6997 ft 153 kts 99°
2026-04-29 14:04 30.32985 -97.74598 7000 ft 153 kts 88°
2026-04-29 14:04 30.33180 -97.73407 7002 ft 152 kts 71°
2026-04-29 14:04 30.33624 -97.72296 7003 ft 152 kts 59°
2026-04-29 14:05 30.34170 -97.71251 7000 ft 152 kts 57°
2026-04-29 14:05 30.34683 -97.70187 7001 ft 151 kts 63°
2026-04-29 14:05 30.35076 -97.69054 7004 ft 152 kts 70°
2026-04-29 14:05 30.35358 -97.67875 7002 ft 152 kts 78°
2026-04-29 14:06 30.35464 -97.66660 7004 ft 152 kts 90°
2026-04-29 14:06 30.35362 -97.65444 7004 ft 152 kts 101°
2026-04-29 14:06 30.35082 -97.64263 6999 ft 152 kts 109°
2026-04-29 14:06 30.34698 -97.63121 7002 ft 152 kts 112°
2026-04-29 14:07 30.34314 -97.61977 7001 ft 152 kts 112°
2026-04-29 14:07 30.34076 -97.60788 7004 ft 152 kts 98°
2026-04-29 14:07 30.33926 -97.59575 7003 ft 152 kts 98°
2026-04-29 14:07 30.33779 -97.58364 7003 ft 152 kts 98°
2026-04-29 14:08 30.33634 -97.57150 7003 ft 152 kts 98°
2026-04-29 14:08 30.33255 -97.56019 7005 ft 152 kts 121°
2026-04-29 14:08 30.32705 -97.54977 7004 ft 152 kts 123°
2026-04-29 14:08 30.32146 -97.53939 7004 ft 152 kts 123°
2026-04-29 14:09 30.31586 -97.52903 7004 ft 152 kts 123°
2026-04-29 14:09 30.31033 -97.51881 7004 ft 152 kts 123°
2026-04-29 14:09 30.30472 -97.50844 7003 ft 152 kts 123°
2026-04-29 14:09 30.29911 -97.49810 6997 ft 152 kts 123°
2026-04-29 14:10 30.29351 -97.48776 7003 ft 151 kts 123°
2026-04-29 14:10 30.28780 -97.47752 7003 ft 151 kts 124°
2026-04-29 14:10 30.28192 -97.46738 7002 ft 152 kts 125°
2026-04-29 14:10 30.27604 -97.45729 7003 ft 151 kts 125°
2026-04-29 14:11 30.27016 -97.44718 7002 ft 151 kts 125°
2026-04-29 14:11 30.26436 -97.43722 7004 ft 151 kts 125°
2026-04-29 14:11 30.25843 -97.42702 7000 ft 151 kts 125°
2026-04-29 14:11 30.25262 -97.41705 7000 ft 151 kts 125°
2026-04-29 14:12 30.24536 -97.40834 7004 ft 151 kts 134°
2026-04-29 14:12 30.23889 -97.39879 7005 ft 151 kts 127°
2026-04-29 14:12 30.23294 -97.38874 7004 ft 151 kts 124°
2026-04-29 14:12 30.22715 -97.37857 7004 ft 151 kts 124°
2026-04-29 14:13 30.22136 -97.36838 7002 ft 151 kts 124°
2026-04-29 14:13 30.21558 -97.35819 7002 ft 151 kts 124°
2026-04-29 14:13 30.20980 -97.34802 7004 ft 151 kts 124°
2026-04-29 14:13 30.20403 -97.33787 7000 ft 151 kts 124°
2026-04-29 14:14 30.19825 -97.32771 7004 ft 151 kts 124°
2026-04-29 14:14 30.19247 -97.31756 7004 ft 151 kts 124°
2026-04-29 14:14 30.18675 -97.30754 7002 ft 151 kts 124°
2026-04-29 14:14 30.18096 -97.29736 7004 ft 151 kts 124°
2026-04-29 14:15 30.17518 -97.28720 7000 ft 151 kts 123°
2026-04-29 14:15 30.17142 -97.27592 7002 ft 151 kts 106°
2026-04-29 14:15 30.16852 -97.26419 7000 ft 152 kts 106°
2026-04-29 14:15 30.16563 -97.25245 7002 ft 152 kts 106°
2026-04-29 14:16 30.16272 -97.24069 7002 ft 152 kts 106°
2026-04-29 14:16 30.16076 -97.23275 7001 ft 152 kts 107°
2026-04-29 14:16 30.15788 -97.22116 6998 ft 152 kts 107°
2026-04-29 14:16 30.15496 -97.20940 7002 ft 152 kts 107°
2026-04-29 14:17 30.15204 -97.19767 7003 ft 152 kts 107°
2026-04-29 14:17 30.14912 -97.18594 7004 ft 152 kts 107°
2026-04-29 14:17 30.14619 -97.17418 7001 ft 152 kts 107°
2026-04-29 14:17 30.14326 -97.16243 7003 ft 152 kts 107°
2026-04-29 14:18 30.14033 -97.15068 7000 ft 152 kts 107°
2026-04-29 14:18 30.13739 -97.13889 7003 ft 153 kts 107°
2026-04-29 14:18 30.13448 -97.12722 7003 ft 153 kts 107°
2026-04-29 14:18 30.13153 -97.11541 7000 ft 153 kts 107°
2026-04-29 14:19 30.12858 -97.10361 7003 ft 153 kts 107°
2026-04-29 14:19 30.12563 -97.09183 6999 ft 153 kts 106°
2026-04-29 14:19 30.12269 -97.08002 7002 ft 153 kts 107°
2026-04-29 14:19 30.11974 -97.06824 6999 ft 153 kts 107°
2026-04-29 14:20 30.11680 -97.05647 7002 ft 152 kts 107°
2026-04-29 14:20 30.11386 -97.04472 7004 ft 153 kts 107°
2026-04-29 14:20 30.11090 -97.03293 7001 ft 152 kts 107°
2026-04-29 14:20 30.10795 -97.02116 7004 ft 152 kts 107°
2026-04-29 14:21 30.10501 -97.00942 7000 ft 152 kts 107°
2026-04-29 14:21 30.10207 -96.99770 7004 ft 152 kts 107°
2026-04-29 14:21 30.09913 -96.98598 7001 ft 152 kts 107°
2026-04-29 14:21 30.09619 -96.97426 7002 ft 152 kts 107°
2026-04-29 14:22 30.09329 -96.96267 7005 ft 152 kts 107°
2026-04-29 14:22 30.09034 -96.95096 7001 ft 152 kts 107°
2026-04-29 14:22 30.08741 -96.93927 7002 ft 152 kts 107°
2026-04-29 14:22 30.08446 -96.92755 7001 ft 152 kts 107°
2026-04-29 14:23 30.08151 -96.91585 7003 ft 152 kts 107°
2026-04-29 14:23 30.07858 -96.90413 7005 ft 152 kts 107°
2026-04-29 14:23 30.07563 -96.89242 7003 ft 152 kts 107°
2026-04-29 14:23 30.07267 -96.88069 7005 ft 152 kts 107°
2026-04-29 14:24 30.06972 -96.86894 7002 ft 152 kts 107°
2026-04-29 14:24 30.06675 -96.85718 7005 ft 153 kts 107°
2026-04-29 14:24 30.06379 -96.84541 7005 ft 152 kts 107°
2026-04-29 14:24 30.06082 -96.83366 7002 ft 153 kts 107°
2026-04-29 14:25 30.05785 -96.82191 7004 ft 152 kts 107°
2026-04-29 14:25 30.05492 -96.81028 7002 ft 152 kts 107°
2026-04-29 14:25 30.05196 -96.79854 7004 ft 152 kts 107°
2026-04-29 14:25 30.04899 -96.78680 7001 ft 152 kts 107°
2026-04-29 14:26 30.04603 -96.77504 7000 ft 152 kts 107°
2026-04-29 14:26 30.04305 -96.76329 7003 ft 152 kts 107°
2026-04-29 14:26 30.04009 -96.75158 7002 ft 152 kts 107°
2026-04-29 14:26 30.03711 -96.73984 7005 ft 152 kts 107°
2026-04-29 14:27 30.03415 -96.72810 7002 ft 152 kts 107°
2026-04-29 14:27 30.03118 -96.71637 7001 ft 152 kts 107°
2026-04-29 14:27 30.02820 -96.70461 7004 ft 152 kts 107°
2026-04-29 14:28 30.02229 -96.68130 7005 ft 152 kts 107°
2026-04-29 14:28 30.01931 -96.66955 7003 ft 152 kts 107°
2026-04-29 14:28 30.01634 -96.65782 7003 ft 152 kts 107°
2026-04-29 14:28 30.01337 -96.64610 7005 ft 152 kts 107°
2026-04-29 14:29 30.01038 -96.63438 7002 ft 152 kts 107°
2026-04-29 14:29 30.00741 -96.62264 7001 ft 152 kts 107°
2026-04-29 14:29 30.00442 -96.61090 7004 ft 152 kts 107°
2026-04-29 14:29 30.00144 -96.59917 7004 ft 152 kts 107°
2026-04-29 14:30 29.99845 -96.58742 7002 ft 153 kts 107°
2026-04-29 14:30 29.99545 -96.57561 7014 ft 154 kts 107°
2026-04-29 14:30 29.99298 -96.56358 7001 ft 155 kts 93°
2026-04-29 14:30 29.99306 -96.55138 7005 ft 154 kts 90°
2026-04-29 14:31 29.99314 -96.53903 7006 ft 154 kts 89°
2026-04-29 14:31 29.99324 -96.52663 7005 ft 155 kts 89°
2026-04-29 14:31 29.99333 -96.51418 7005 ft 155 kts 89°
2026-04-29 14:31 29.99341 -96.50176 7004 ft 155 kts 89°
2026-04-29 14:32 29.99349 -96.48933 7004 ft 155 kts 89°
2026-04-29 14:32 29.99356 -96.47686 7003 ft 156 kts 89°
2026-04-29 14:32 29.99363 -96.46437 7003 ft 156 kts 89°
2026-04-29 14:32 29.99370 -96.45187 7003 ft 156 kts 89°
2026-04-29 14:33 29.99377 -96.43937 7003 ft 156 kts 90°
2026-04-29 14:33 29.99383 -96.42686 7003 ft 156 kts 90°
2026-04-29 14:33 29.99390 -96.41436 7003 ft 156 kts 89°
2026-04-29 14:33 29.99397 -96.40185 7003 ft 156 kts 90°
2026-04-29 14:34 29.99403 -96.38938 6999 ft 155 kts 90°
2026-04-29 14:34 29.99409 -96.37704 7003 ft 156 kts 90°
2026-04-29 14:34 29.99415 -96.36451 7004 ft 156 kts 90°
2026-04-29 14:34 29.99421 -96.35194 7004 ft 157 kts 90°
2026-04-29 14:35 29.99427 -96.33934 7004 ft 157 kts 90°
2026-04-29 14:35 29.99433 -96.32678 7000 ft 155 kts 90°
2026-04-29 14:35 29.99438 -96.31439 6995 ft 153 kts 90°
2026-04-29 14:35 29.99444 -96.30231 6987 ft 151 kts 90°
2026-04-29 14:36 29.99448 -96.29034 6993 ft 148 kts 90°
2026-04-29 14:36 29.99453 -96.27849 6997 ft 147 kts 90°
2026-04-29 14:36 29.99458 -96.26672 6999 ft 146 kts 90°
2026-04-29 14:36 29.99463 -96.25499 6999 ft 146 kts 90°
2026-04-29 14:37 29.99468 -96.24330 7002 ft 146 kts 90°
2026-04-29 14:37 29.99473 -96.23161 7002 ft 145 kts 90°
2026-04-29 14:37 29.99477 -96.21994 7002 ft 145 kts 90°
2026-04-29 14:37 29.99481 -96.20828 7002 ft 145 kts 90°
2026-04-29 14:38 29.99485 -96.19664 7002 ft 145 kts 90°
2026-04-29 14:38 29.99489 -96.18501 7002 ft 145 kts 90°
2026-04-29 14:38 29.99493 -96.17338 7003 ft 145 kts 90°
2026-04-29 14:38 29.99497 -96.16176 7003 ft 145 kts 90°
2026-04-29 14:39 29.99501 -96.15012 7003 ft 145 kts 90°
2026-04-29 14:39 29.99505 -96.13861 7003 ft 146 kts 90°
2026-04-29 14:39 29.99508 -96.12680 6953 ft 149 kts 90°
2026-04-29 14:39 29.99512 -96.11476 6799 ft 151 kts 90°
2026-04-29 14:40 29.99516 -96.10259 6624 ft 152 kts 90°
2026-04-29 14:40 29.99520 -96.09032 6459 ft 152 kts 90°
2026-04-29 14:40 29.99522 -96.07820 6310 ft 151 kts 90°
2026-04-29 14:40 29.99525 -96.06607 6142 ft 151 kts 90°
2026-04-29 14:41 29.99528 -96.05397 5994 ft 150 kts 90°
2026-04-29 14:41 29.99531 -96.04194 5818 ft 151 kts 90°
2026-04-29 14:41 29.99561 -96.03003 5653 ft 150 kts 82°
2026-04-29 14:41 29.99729 -96.01814 5502 ft 150 kts 80°
2026-04-29 14:42 29.99897 -96.00633 5365 ft 149 kts 80°
2026-04-29 14:42 30.00064 -95.99451 5196 ft 149 kts 80°
2026-04-29 14:42 30.00230 -95.98271 5052 ft 148 kts 80°
2026-04-29 14:42 30.00395 -95.97098 4899 ft 148 kts 80°
2026-04-29 14:43 30.00559 -95.95925 4748 ft 148 kts 80°
2026-04-29 14:43 30.00723 -95.94755 4603 ft 147 kts 80°
2026-04-29 14:43 30.00886 -95.93587 4454 ft 147 kts 80°
2026-04-29 14:43 30.01049 -95.92422 4314 ft 147 kts 81°
2026-04-29 14:44 30.01209 -95.91274 4170 ft 147 kts 81°
2026-04-29 14:44 30.01371 -95.90113 4025 ft 146 kts 81°
2026-04-29 14:44 30.01532 -95.88958 3882 ft 146 kts 81°
2026-04-29 14:44 30.01692 -95.87803 3738 ft 145 kts 81°
2026-04-29 14:45 30.01853 -95.86649 3586 ft 145 kts 81°
2026-04-29 14:45 30.02013 -95.85498 3460 ft 145 kts 80°
2026-04-29 14:45 30.02173 -95.84349 3317 ft 145 kts 80°
2026-04-29 14:45 30.02330 -95.83218 3174 ft 145 kts 81°
2026-04-29 14:46 30.02489 -95.82071 3028 ft 145 kts 81°
2026-04-29 14:46 30.02648 -95.80926 2882 ft 144 kts 81°
2026-04-29 14:46 30.02806 -95.79783 2683 ft 146 kts 80°
2026-04-29 14:46 30.02970 -95.78614 2416 ft 148 kts 80°
2026-04-29 14:47 30.03130 -95.77456 2223 ft 145 kts 80°
2026-04-29 14:47 30.03289 -95.76303 1976 ft 146 kts 81°
2026-04-29 14:47 30.03444 -95.75177 1910 ft 137 kts 81°
2026-04-29 14:47 30.03539 -95.74475 1888 ft 131 kts 80°
2026-04-29 14:48 30.03721 -95.73144 1852 ft 123 kts 85°
2026-04-29 14:48 30.03786 -95.72186 1838 ft 117 kts 84°
2026-04-29 14:48 30.03900 -95.71287 1841 ft 113 kts 80°
2026-04-29 14:48 30.04039 -95.70382 1817 ft 118 kts 79°
2026-04-29 14:49 30.04196 -95.69449 1718 ft 118 kts 78°
2026-04-29 14:49 30.04350 -95.68516 1605 ft 118 kts 78°
2026-04-29 14:49 30.04523 -95.67579 1467 ft 120 kts 77°
2026-04-29 14:49 30.04661 -95.66638 1352 ft 119 kts 80°
2026-04-29 14:50 30.04800 -95.65699 1204 ft 119 kts 79°
2026-04-29 14:50 30.04953 -95.64786 1162 ft 112 kts 77°
2026-04-29 14:50 30.05115 -95.63934 1186 ft 106 kts 77°
2026-04-29 14:50 30.05288 -95.63122 1173 ft 106 kts 75°
2026-04-29 14:51 30.05467 -95.62296 1163 ft 105 kts 75°
2026-04-29 14:51 30.05643 -95.61482 1169 ft 103 kts 75°
2026-04-29 14:51 30.05831 -95.60682 1177 ft 104 kts 72°
2026-04-29 14:51 30.06047 -95.59887 1163 ft 105 kts 72°
2026-04-29 14:52 30.06080 -95.59054 1157 ft 104 kts 105°
2026-04-29 14:52 30.05666 -95.58427 1157 ft 99 kts 153°
2026-04-29 14:52 30.05022 -95.58297 1174 ft 93 kts 180°
2026-04-29 14:52 30.04392 -95.58271 1227 ft 88 kts 182°
2026-04-29 14:53 30.03775 -95.58262 1271 ft 89 kts 181°
2026-04-29 14:53 30.03155 -95.58256 1294 ft 90 kts 180°
2026-04-29 14:53 30.02540 -95.58187 1321 ft 89 kts 176°
2026-04-29 14:53 30.01976 -95.57904 1312 ft 93 kts 129°
2026-04-29 14:54 30.01889 -95.57173 1290 ft 99 kts 73°
2026-04-29 14:54 30.02077 -95.56433 1282 ft 93 kts 73°
2026-04-29 14:54 30.02252 -95.55733 1121 ft 89 kts 73°
2026-04-29 14:54 30.02468 -95.55094 923 ft 85 kts 48°
2026-04-29 14:55 30.02993 -95.54857 721 ft 83 kts 355°
2026-04-29 14:55 30.03549 -95.54906 599 ft 78 kts 350°
2026-04-29 14:55 30.04090 -95.54992 477 ft 78 kts 349°
2026-04-29 14:55 30.04628 -95.55072 359 ft 78 kts 348°
2026-04-29 14:56 30.05165 -95.55163 226 ft 78 kts 348°
2026-04-29 14:56 30.05662 -95.55236 153 ft 59 kts 349°
2026-04-29 14:56 30.05956 -95.55281 149 ft 16 kts 358°
2026-04-29 14:56 30.05973 -95.55235 152 ft 4 kts 82°
2026-04-29 14:57 30.06028 -95.55233 153 ft 17 kts 352°
2026-04-29 14:57 30.06133 -95.55249 150 ft 14 kts 352°
2026-04-29 14:57 30.06238 -95.55263 148 ft 14 kts 353°
2026-04-29 14:57 30.06330 -95.55277 145 ft 13 kts 352°
2026-04-29 14:58 30.06413 -95.55281 144 ft 10 kts 12°
2026-04-29 14:58 30.06450 -95.55224 145 ft 10 kts 54°
2026-04-29 14:58 30.06473 -95.55160 147 ft 8 kts 57°
2026-04-29 14:58 30.06546 -95.55160 145 ft 13 kts 359°
2026-04-29 14:59 30.06627 -95.55159 143 ft 10 kts 357°
2026-04-29 14:59 30.06710 -95.55161 143 ft 14 kts
2026-04-29 14:59 30.06784 -95.55155 145 ft 11 kts 360°
2026-04-29 14:59 30.06889 -95.55156 147 ft 12 kts
2026-04-29 15:00 30.06953 -95.55146 148 ft 8 kts 53°
2026-04-29 15:00 30.06962 -95.55112 149 ft 1 kts 346°
2026-04-29 15:00 30.06964 -95.55113 149 ft 0 kts 350°